{"data":{"norad_id":49430,"intl_designator":"2021-104Y","name":"STARLINK-3138","alt_names":[],"object_type":"PAYLOAD","status":"ACTIVE","operator":null,"country":"US","launch_date":"2021-11-13","launch_site_code":"AFETR","launch_vehicle":null,"mission":null,"orbit_class":"UNKNOWN","rcs_meters":null,"size_class":null,"mass_kg":null,"dimensions":null,"purposes":["comms"],"wikipedia_slug":null,"has_3d_model":false,"image_url":null,"decayed_at":null,"tle_current":{"epoch":"2026-09-19T18:29:44.715552Z","epoch_age_seconds":104334,"freshness":"FRESH","line1":"1 49430U 21104Y   26262.77065643 -.00000988  00000+0 -18146-4 0  9994","line2":"2 49430  53.1600  64.7738 0000576  84.3724 275.7344 15.34375500268111","mean_motion":15.343755,"eccentricity":5.76e-5,"inclination_deg":53.16,"raan_deg":64.7738,"arg_perigee_deg":84.3724,"mean_anomaly_deg":275.7344,"bstar":-1.8146e-5,"rev_number":26811,"period_min":93.8492565868,"perigee_km":462.38202374691,"apogee_km":463.17009693147,"semimajor_km":6840.9130603392,"source":"CELESTRAK","updated_at":"2026-09-20T09:00:39.259077Z"}}}